SCP
0 0 0 0 0 0 1 1 1 1 1 1 1 0 0 0 0 0 0 0 0 0 0 0 0 0 0 0 0 0 0 0 0 0 0 0 0 0
0 0 0 0 0 0 0 1 1 1 1 1 1 0 0 0 0 0 0 0 0 0 0 0 0 0 0 0 0 0 0 0 0 0 0 0 0 0
0 0 0 0 0 0 0 1 1 1 1 1 1 0 0 0 0 0 0 0 0 0 0 0 0 0 0 0 0 0 0 0 -0 0 0 0 0 0
0 0 0 0 0 0 0 0 1 1 1 1 0 0 0 0 0 0 0 0 0 0 0 0 0 0 0 0 0 0 0 0 0 0 0 0 0 0
0 0 0 0 0 0 0 0 0 0 0 1 1 1 0 0 0 0 0 0 0 0 0 0 0 0 0 0 0 0 0 0 0 0 0 0 0 0
0 0 0 0 0 0 0 0 0 0 0 1 1 1 1 0 0 0 0 0 0 0 0 0 0 0 0 0 0 0 0 0 0 0 0 0 0 0
0 0 0 0 0 0 0 0 0 0 0 0 1 0 0 0 0 0 0 1 1 0 0 0 0 0 0 0 0 0 0 0 0 0 0 0 0 0
0 0 0 0 0 0 0 0 0 0 0 0 0 0 0 0 0 0 0 1 1 1 1 1 1 0 0 0 0 0 0 0 0 0 0 0 0 0
0 0 0 0 0 0 0 0 0 0 0 0 0 0 0 0 0 0 0 0 0 0 0 1 1 0 0 0 0 0 0 0 0 0 0 0 0 0
0 0 0 0 0 0 0 0 0 0 0 0 0 0 0 0 0 0 0 0 0 0 0 0 0 0 0 0 0 0 0 0 0 0 0 0 0 0
0 0 0 0 0 0 0 0 0 0 0 0 0 0 0 0 0 0 0 0 0 0 0 0 0 0 0 0 0 0 0 0 0 0 0 0 0 0
1 1 0 0 0 0 0 0 0 0 0 0 0 0 0 0 0 0 0 0 0 0 0 0 0 0 0 0 0 0 0 0 0 0 0 0 0 0
1 1 0 0 0 0 0 0 0 0 0 0 0 0 0 0 0 0 0 0 0 0 0 0 0 0 0 0 0 0 0 0 0 0 0 0 0 0
0 0 0 0 0 0 0 0 0 0 0 0 0 0 0 0 0 0 0 0 0 0 0 0 0 0 0 0 0 0 0 0 0 0 0 0 0 0
0 0 0 0 0 0 0 0 0 0 0 0 0 0 0 0 0 0 0 0 0 0 0 0 0 0 0 0 0 0 0 0 0 0 0 0 0 0
0 0 0 0 0 0 0 0 0 0 0 0 0 0 0 0 0 0 0 0 0 0 0 0 0 0 0 0 0 0 0 0 0 0 0 0 0 0
0 0 0 0 0 0 0 0 0 0 0 0 0 0 0 0 0 0 0 0 0 0 0 0 0 0 0 0 0 0 0 0 0 0 0 0 0 0
0 0 0 0 0 0 0 0 0 0 0 0 0 0 0 0 0 0 0 0 0 0 0 0 0 0 0 0 0 0 0 0 0 0 0 0 0 0
0 0 0 0 0 0 0 0 0 0 0 0 0 0 0 0 0 0 0 0 0 0 0 0 0 0 0 0 0 0 0 0 0 0 0 0 0 0
0 0 0 0 0 0 0 0 0 0 0 0 0 0 0 0 0 0 0 0 0 0 0 0 0 0 0 0 0 0 0 0 0 0 0 0 0 0
0 0 0 0 0 0 0 0 0 0 0 0 0 0 0 0 0 0 0 0 0 0 0 0 0 0 0 0 0 0 0 0 0 0 0 0 0 0
0 0 0 0 0 0 0 0 0 0 0 0 0 0 0 0 0 0 0 0 0 0 0 0 0 0 0 0 0 0 0 0 0 0 0 0 0 0
0 0 0 0 0 0 0 0 0 0 0 0 0 0 0 0 0 0 0 0 0 0 0 0 0 0 0 0 0 0 0 0 0 0 0 0 0 0
Wind_Speed
6 7 6 6 7 7 7 7 7 5 5 5 4 4 4 5 6 9 10 13 12 10 8 7 6 6 5 4 3 3 3 5 6 6 6 6 6 6
4 6 7 6 6 7 7 7 7 7 5 3 3 3 2 3 6 9 9 13 13 12 11 10 9 8 8 7 6 5 5 6 7 8 8 8 7 6
6 6 7 8 7 7 7 7 7 6 7 4 3 4 4 5 4 7 8 9 10 15 14 13 12 11 10 9 8 8 7 7 7 8 9 9 9 7
6 6 7 6 8 8 7 8 7 7 7 7 5 5 7 6 5 6 6 6 7 13 15 14 14 13 12 11 10 10 9 9 8 8 9 10 10 8
6 6 6 6 7 7 8 8 7 7 7 7 6 5 5 4 4 5 7 6 7 7 12 14 14 14 13 13 12 12 11 11 10 9 9 9 8 7
6 5 5 5 6 7 6 7 7 7 7 6 6 5 4 3 4 5 5 5 6 6 8 9 11 15 16 16 15 14 14 13 11 10 10 9 9 8
6 6 4 2 4 5 5 5 5 4 4 4 4 4 4 4 4 4 5 4 5 5 6 7 8 10 12 16 18 18 16 14 13 12 10 10 10 10
6 5 4 6 5 5 4 5 5 4 3 3 3 4 4 5 4 4 3 3 4 3 5 7 7 8 8 9 10 15 16 16 14 13 12 11 11 12
6 5 3 3 4 5 5 7 6 4 4 3 3 3 3 3 4 4 4 4 3 1 2 5 5 7 7 6 6 8 10 12 14 14 14 13 12 12
7 7 6 6 4 3 4 4 3 3 4 5 3 2 1 1 2 2 2 2 2 1 1 3 3 4 5 5 7 8 9 10 12 12 13 13 12 12
4 6 6 6 5 1 6 5 4 2 3 5 5 3 1 1 1 2 3 2 2 3 3 2 2 3 4 4 2 5 6 8 10 11 12 12 12 12
1 2 0 3 2 3 8 6 5 2 1 3 5 6 6 6 8 5 3 3 2 2 3 2 1 1 2 2 3 3 2 5 8 9 10 11 11 10
2 2 1 2 3 4 8 7 3 5 3 2 0 1 1 2 3 3 2 2 1 1 3 3 1 1 1 2 2 2 3 4 3 4 9 11 11 11
4 3 1 2 4 6 6 4 2 4 3 1 2 2 2 2 2 2 2 2 1 1 3 4 2 2 2 2 2 2 3 3 3 4 3 4 9 12
4 4 5 5 6 6 5 4 5 4 2 2 2 2 2 2 2 2 1 1 2 2 2 3 2 1 2 3 3 3 3 3 2 2 3 3 3 4
3 3 5 5 4 2 1 4 3 2 3 3 4 3 3 2 1 1 1 1 0 1 2 2 2 2 3 4 4 5 4 4 3 4 4 4 4 4
4 1 1 2 2 2 2 2 3 4 3 3 4 4 3 2 2 1 1 2 2 2 1 1 1 3 5 5 5 5 4 4 4 3 3 5 5 5
4 4 4 3 2 2 2 2 2 3 3 3 3 2 2 1 1 1 1 2 2 2 2 2 3 3 4 4 4 5 4 4 4 4 3 5 6 5
8 7 6 6 5 5 4 4 4 4 4 4 4 3 3 3 2 3 3 3 3 4 3 3 4 4 6 6 1 1 5 5 5 5 4 4 7 7
8 8 8 7 6 6 6 5 5 4 4 4 4 3 3 3 4 4 4 5 5 5 4 4 4 4 5 6 5 3 2 5 5 6 6 6 6 7
8 7 7 7 6 6 6 6 6 5 5 5 5 5 5 4 4 4 4 4 4 5 5 5 4 3 5 4 4 4 2 2 3 5 6 6 6 6
6 6 6 7 6 6 6 5 5 5 5 5 5 5 4 4 4 4 4 4 4 4 5 4 4 4 3 4 5 5 4 3 1 1 2 2 4 5
6 6 6 6 6 5 5 5 5 4 4 4 4 4 4 4 4 4 4 4 4 5 5 5 4 4 4 4 4 4 5 5 4 3 1 2 5 7
Wind_Direction
239 245 248 255 256 250 243 233 231 227 221 231 215 194 199 219 174 206 219 186 194 203 208 210 208 205 206 211 226 262 298 309 305 300 295 301 314 326
236 247 248 248 251 252 245 238 235 238 232 216 213 186 162 214 197 233 231 164 192 203 208 212 215 215 217 220 227 241 262 281 289 294 293 290 292 300
224 233 242 245 245 246 246 242 235 230 233 230 228 232 233 249 207 232 231 212 202 199 206 212 217 219 222 226 231 238 248 262 275 285 292 287 282 277
243 244 247 245 246 245 240 238 233 228 231 233 222 227 244 258 264 255 240 233 236 187 200 212 218 220 222 225 231 236 243 251 261 271 281 284 279 268
243 254 264 263 260 251 241 238 234 230 225 233 234 215 226 231 244 252 249 246 246 195 196 213 218 222 225 226 227 231 236 242 248 256 267 276 277 266
233 243 261 265 264 267 256 248 238 230 223 228 232 223 211 199 226 238 241 235 242 234 218 215 216 219 228 231 230 230 231 233 237 243 253 262 263 259
229 233 240 307 331 306 302 292 270 246 229 227 227 221 204 178 207 221 243 250 250 241 242 225 218 222 219 226 231 235 231 230 230 233 240 246 249 251
228 231 203 211 205 223 272 306 315 293 256 222 214 213 207 200 201 205 229 244 256 223 243 251 236 241 238 241 211 212 222 226 225 226 231 235 240 244
231 227 222 229 241 229 196 220 234 234 260 278 235 214 202 193 195 201 214 234 254 301 255 271 252 250 254 242 196 205 219 227 228 226 228 231 232 235
230 233 227 225 219 271 251 244 236 203 209 240 261 257 245 165 188 194 192 227 253 226 215 273 273 265 275 262 184 207 228 236 238 234 230 227 226 228
238 241 248 243 118 265 269 265 258 215 184 247 304 315 22 169 207 193 186 209 231 210 186 240 314 317 301 292 133 184 231 236 237 237 234 226 223 228
252 229 147 309 67 254 261 263 269 278 249 194 212 216 225 208 206 234 235 232 243 226 168 192 258 333 313 356 0 345 276 223 228 234 234 228 217 229
288 252 139 82 316 282 279 281 313 321 294 278 163 123 134 155 177 200 207 228 244 211 158 174 192 199 256 294 295 299 312 319 295 242 223 222 217 226
317 316 8 3 310 291 276 304 328 275 261 216 146 131 127 124 127 149 161 167 179 174 166 177 195 206 235 258 263 253 267 280 303 313 320 187 218 229
309 315 306 295 283 254 229 248 239 225 202 181 148 131 123 125 128 127 123 128 140 121 134 171 214 245 270 290 305 305 312 307 310 313 313 300 278 241
287 256 241 244 253 293 196 199 205 184 181 163 139 133 136 143 135 95 44 6 8 126 139 165 198 243 266 274 285 295 302 301 309 309 303 293 275 253
329 302 239 187 169 152 149 149 158 162 160 140 137 139 148 151 133 101 7 340 342 347 349 357 297 275 269 276 279 283 296 297 294 296 298 295 284 262
14 38 37 41 62 91 112 114 112 112 114 115 111 110 106 96 89 85 9 336 338 345 351 346 325 303 278 248 240 281 295 304 312 310 293 293 298 302
45 40 36 37 39 46 57 69 65 59 59 65 65 61 53 42 29 22 12 0 354 345 342 336 330 321 311 314 330 253 318 326 326 320 313 299 300 310
40 38 37 36 37 42 46 54 59 59 61 65 63 55 40 31 26 17 15 5 350 339 337 347 355 345 325 321 321 322 313 328 335 326 325 320 305 293
39 38 35 35 37 40 41 46 50 50 48 47 43 34 27 26 28 17 9 9 342 341 343 349 2 327 303 297 298 317 10 49 340 325 329 322 317 315
41 37 34 34 34 35 35 37 44 43 38 37 30 22 13 10 16 11 2 357 357 352 344 343 345 337 325 318 322 330 340 347 341 276 263 286 319 324
36 38 35 28 28 27 27 27 31 31 28 23 20 11 4 6 3 2 3 5 2 358 353 348 347 341 333 327 329 336 344 351 350 343 356 187 233 259